Location: Silverdale
(47.6506°N, 122.6941°W)
Time: 00:17:41
(UTC+00:00)

A-11 Canister half - Pass Details

Date: 11 October 2022
Orbit: 1524 x 1685 km, 47.3° (Epoch: 05 December)

Event Time Altitude Azimuth Distance (km) Brightness Sun altitude
Rises 02:48:53 0° 289° (WNW) 4,683 13.2 -13.8°
Reaches altitude 10° 02:51:58 10° 285° (WNW) 3,708 12.4 -14.3°
Maximum altitude 03:01:00 56° 211° (SSW) 1,805 9.5 -15.8°
Enters shadow 03:09:43 12° 137° (SE) 3,629 10.5 -17.3°
